X

Important NEWS



New Hub Active

Miami is our new hub! Old members can request transfer via hr@dlxairways.net

Thank you very much and have nice flight.


Deluxe Airways.

X

Tours



Hello again, we created one nice test tour for all pilots to attend. also this is ment to be testing of our tour system

Available Tours

If you find some issues please inform us.

Thank you very much and have nice flight.


Deluxe Airways.

 METAR AND TAF INFORMATION
ArrayMETAR FOR LIRF
14691978 5 LIRF 250620Z 09007KT CAVOK 24/17 Q1016 NOSIG LIRF 2019-08-25T06:20:00Z 41.78 12.22 24.0 17.0 90 7 6.21 30.0 TRUE VFR METAR 3.0 LIRF 250550Z 08008KT CAVOK 23/17 Q1016 NOSIG LIRF 2019-08-25T05:50:00Z 41.78 12.22 23.0 17.0 80 8 6.21 30.0 TRUE VFR METAR 3.0 LIRF 250520Z 09004KT CAVOK 21/16 Q1016 NOSIG LIRF 2019-08-25T05:20:00Z 41.78 12.22 21.0 16.0 90 4 6.21 30.0 TRUE VFR METAR 3.0 LIRF 250450Z 08003KT CAVOK 21/16 Q1016 NOSIG LIRF 2019-08-25T04:50:00Z 41.78 12.22 21.0 16.0 80 3 6.21 30.0 TRUE VFR METAR 3.0

 AIRPORT MAP

 RUNWAY INFORMATION
Runway 07 Runway length 10849 ft Runway width 148 ft
Runway elevation 7 ft Runway displaced threshold 1365 ft Runway heading 70
Runway 25 Runway length 10849 ft Runway width 148 ft
Runway elevation 7 ft Runway displaced threshold 0 ft Runway heading 250
Runway 16C Runway length 11818 ft Runway width 148 ft
Runway elevation 11 ft Runway displaced threshold 0 ft Runway heading 163
Runway 34C Runway length 11818 ft Runway width 148 ft
Runway elevation 4 ft Runway displaced threshold 0 ft Runway heading 343
Runway 16L Runway length 12795 ft Runway width 197 ft
Runway elevation 14 ft Runway displaced threshold 0 ft Runway heading 163
Runway 34R Runway length 12795 ft Runway width 197 ft
Runway elevation 7 ft Runway displaced threshold 0 ft Runway heading 343
Runway 16R Runway length 12795 ft Runway width 197 ft
Runway elevation 7 ft Runway displaced threshold 0 ft Runway heading 163
Runway 34L Runway length 12795 ft Runway width 197 ft
Runway elevation 8 ft Runway displaced threshold 1053 ft Runway heading 343

 AIRPORT FREQUENCIES
Type ARR Name ROMA DIREC Frequency 119.2 MHZ
Type ATIS Name ATIS Frequency 114.9 MHZ
Type CLD Name FIUME RAMP Frequency 121.725 MHZ
Type GND Name FIUME GND/ Frequency 121.8 MHZ
Type TWR Name FIUME TWR Frequency 118.7 MHZ

 AIRPORT NEAR NAVIGATION AIDS
Type NDB Name Fiumicino Frequency 354 KHZ
Type NDB Name Fiumicino Frequency 421 KHZ
Type NDB Name Fiumicino Frequency 345 KHZ
Type VOR-DME Name Ostia Frequency 114900 KHZ
Type NDB Name Ostia Frequency 321 KHZ



Powered by Virtual Airlines Manager [v2.6.2]

Template code change by DeluxeAir